Regional Weather Roundup
Issued by NWS

Home | Current Version | Previous Version | Text Only | Print | Product List | Glossary Off
Versions: 1 2 3 4 5 6 7 8 9 10 11 12 13 14 15 16 17 18 19 20 21 22 23 24 25 26 27 28 29 30 31 32 33 34 35 36 37 38 39 40 41 42 43 44 45 46 47 48 49 50

000
ASUS43 KBIS 302102
RWRND

NORTH DAKOTA REGIONAL WEATHER ROUNDUP
NATIONAL WEATHER SERVICE BISMARCK ND
400 PM CDT SUN APR 30 2017

NOTE: "FAIR" INDICATES FEW OR NO CLOUDS BELOW 12,000 FEET WITH NO
SIGNIFICANT WEATHER AND/OR OBSTRUCTIONS TO VISIBILITY.


NDZ001>003-009>011-017-302200-
NORTHWEST NORTH DAKOTA

CITY           SKY/WX    TMP DP  RH WIND       PRES   REMARKS
WILLISTON      FAIR      69  23  17 S14       29.85F
MINOT          FAIR      68  21  16 S15       29.89F
MINOT AFB      PTSUNNY   65  23  19 S9        29.88F
$$

NDZ018>021-031>035-040>046-302200-
SOUTHWEST NORTH DAKOTA

CITY           SKY/WX    TMP DP  RH WIND       PRES   REMARKS
BISMARCK       FAIR      64  22  20 SE5       29.92F
DICKINSON      FAIR      61  11  14 S7        29.88F
GARRISON         N/A     63  18  17 VRB5      29.91F
HETTINGER ARPT SUNNY     60  22  23 E8        29.91F
$$

NDZ004>008-012>016-024-026-027-054-302200-
NORTHEAST NORTH DAKOTA

CITY           SKY/WX    TMP DP  RH WIND       PRES   REMARKS
GRAND FORKS    MOSUNNY   64  23  21 NE14      29.95F
GRND FRKS AFB  SUNNY     62  26  26 E14       29.95F
DEVILS LAKE    FAIR      61  28  28 S12       29.95F
$$

NDZ022-023-025-028>030-036>039-047>053-302200-
SOUTHEAST NORTH DAKOTA

CITY           SKY/WX    TMP DP  RH WIND       PRES   REMARKS
FARGO          PTSUNNY   64  17  16 E18G26    29.91F
JAMESTOWN      FAIR      60  26  27 NE12G23   29.91F
$$





USA.gov is the U.S. government's official web portal to all federal, state and local government web resources and services.